UAL254 KEWR-KORD

Flight info

Callsign UAL254
Flight time 1h 49m
Altitude 38000
Route COATE Q436 KAYYS WYNDE3
Aircraft B77W/H-SDE1E2E3FGHIJ2J3J4J5M1RWXY/LB1D1

Departure

Time 2026-04-23 00:47
Airport Newark Liberty International Airport (KEWR)

Arrival

Time 2026-04-23 02:36
Airport Chicago O'Hare International Airport (KORD)
Time Latitude Longitude Altitude Speed Heading
2026-04-23 00:14 40.69872 -74.17761 32 ft 0 kts 277°
2026-04-23 00:30 40.69871 -74.17755 32 ft 2 kts 277°
2026-04-23 00:30 40.69869 -74.17735 32 ft 2 kts 277°
2026-04-23 00:30 40.69867 -74.17716 32 ft 2 kts 277°
2026-04-23 00:31 40.69865 -74.17696 32 ft 2 kts 277°
2026-04-23 00:31 40.69866 -74.17677 32 ft 2 kts 251°
2026-04-23 00:31 40.69873 -74.17660 32 ft 2 kts 226°
2026-04-23 00:31 40.69884 -74.17648 32 ft 2 kts 216°
2026-04-23 00:32 40.69896 -74.17636 32 ft 2 kts 215°
2026-04-23 00:32 40.69909 -74.17629 32 ft 2 kts 177°
2026-04-23 00:32 40.69924 -74.17635 32 ft 2 kts 146°
2026-04-23 00:32 40.69935 -74.17648 32 ft 2 kts 138°
2026-04-23 00:33 40.69947 -74.17660 32 ft 2 kts 143°
2026-04-23 00:33 40.69959 -74.17672 32 ft 2 kts 144°
2026-04-23 00:33 40.69971 -74.17683 32 ft 2 kts 143°
2026-04-23 00:33 40.69981 -74.17698 32 ft 2 kts 111°
2026-04-23 00:34 40.69983 -74.17717 32 ft 2 kts 90°
2026-04-23 00:34 40.69984 -74.17737 32 ft 2 kts 92°
2026-04-23 00:34 40.69985 -74.17756 32 ft 2 kts 95°
2026-04-23 00:34 40.69986 -74.17776 32 ft 2 kts 95°
2026-04-23 00:35 40.69987 -74.17783 32 ft 0 kts 95°
2026-04-23 00:39 40.69986 -74.17780 32 ft 1 kts 95°
2026-04-23 00:39 40.69985 -74.17755 32 ft 5 kts 95°
2026-04-23 00:39 40.69981 -74.17690 32 ft 7 kts 95°
2026-04-23 00:40 40.69976 -74.17624 32 ft 7 kts 95°
2026-04-23 00:40 40.69973 -74.17557 32 ft 8 kts 94°
2026-04-23 00:40 40.69973 -74.17478 32 ft 9 kts 70°
2026-04-23 00:40 40.70020 -74.17403 32 ft 11 kts 45°
2026-04-23 00:41 40.70072 -74.17369 32 ft 8 kts 11°
2026-04-23 00:41 40.70135 -74.17359 32 ft 9 kts
2026-04-23 00:41 40.70200 -74.17351 32 ft 9 kts
2026-04-23 00:41 40.70266 -74.17344 32 ft 9 kts
2026-04-23 00:42 40.70328 -74.17336 32 ft 5 kts 21°
2026-04-23 00:42 40.70338 -74.17284 32 ft 6 kts 88°
2026-04-23 00:42 40.70336 -74.17223 32 ft 8 kts 95°
2026-04-23 00:42 40.70330 -74.17133 32 ft 12 kts 96°
2026-04-23 00:43 40.70324 -74.17032 32 ft 10 kts 95°
2026-04-23 00:43 40.70317 -74.16933 32 ft 11 kts 95°
2026-04-23 00:43 40.70309 -74.16815 32 ft 13 kts 95°
2026-04-23 00:43 40.70300 -74.16690 32 ft 13 kts 95°
2026-04-23 00:44 40.70292 -74.16569 32 ft 12 kts 95°
2026-04-23 00:44 40.70285 -74.16457 32 ft 12 kts 95°
2026-04-23 00:44 40.70281 -74.16371 32 ft 8 kts 84°
2026-04-23 00:44 40.70305 -74.16299 32 ft 8 kts 53°
2026-04-23 00:45 40.70316 -74.16229 32 ft 7 kts 108°
2026-04-23 00:45 40.70282 -74.16209 32 ft 0 kts 199°
2026-04-23 00:46 40.70242 -74.16230 32 ft 21 kts 203°
2026-04-23 00:46 40.69876 -74.16458 32 ft 94 kts 206°
2026-04-23 00:46 40.69080 -74.16965 35 ft 156 kts 206°
2026-04-23 00:46 40.68010 -74.17639 367 ft 179 kts 204°
2026-04-23 00:47 40.66852 -74.18169 1259 ft 177 kts 189°
2026-04-23 00:47 40.65688 -74.18353 2039 ft 168 kts 184°
2026-04-23 00:47 40.64475 -74.18592 2372 ft 185 kts 193°
2026-04-23 00:47 40.63181 -74.19003 2763 ft 199 kts 205°
2026-04-23 00:48 40.62014 -74.20092 3092 ft 214 kts 233°
2026-04-23 00:48 40.61292 -74.21900 3484 ft 230 kts 252°
2026-04-23 00:48 40.60727 -74.23918 4005 ft 246 kts 252°
2026-04-23 00:48 40.60096 -74.26059 4704 ft 254 kts 251°
2026-04-23 00:49 40.59621 -74.28275 5461 ft 254 kts 269°
2026-04-23 00:49 40.59840 -74.30523 6206 ft 253 kts 292°
2026-04-23 00:49 40.60640 -74.32558 7096 ft 250 kts 302°
2026-04-23 00:49 40.61549 -74.34493 7885 ft 253 kts 303°
2026-04-23 00:50 40.62493 -74.36449 8613 ft 257 kts 303°
2026-04-23 00:50 40.63444 -74.38414 9389 ft 258 kts 303°
2026-04-23 00:50 40.64417 -74.40427 10103 ft 261 kts 303°
2026-04-23 00:50 40.65346 -74.42547 10568 ft 275 kts 297°
2026-04-23 00:51 40.66202 -74.44881 10991 ft 291 kts 297°
2026-04-23 00:51 40.67188 -74.47249 11395 ft 306 kts 308°
2026-04-23 00:51 40.68788 -74.49186 11774 ft 324 kts 327°
2026-04-23 00:51 40.70908 -74.50416 12205 ft 343 kts 338°
2026-04-23 00:52 40.73218 -74.51469 12783 ft 356 kts 339°
2026-04-23 00:52 40.75584 -74.52523 13621 ft 363 kts 339°
2026-04-23 00:52 40.77995 -74.53596 14665 ft 365 kts 339°
2026-04-23 00:52 40.80389 -74.54662 15692 ft 370 kts 339°
2026-04-23 00:53 40.82837 -74.55753 16732 ft 374 kts 339°
2026-04-23 00:53 40.85338 -74.56867 17731 ft 378 kts 339°
2026-04-23 00:53 40.87833 -74.57980 18703 ft 383 kts 339°
2026-04-23 00:53 40.90355 -74.59106 19637 ft 388 kts 339°
2026-04-23 00:54 40.92907 -74.60247 20531 ft 393 kts 339°
2026-04-23 00:54 40.95531 -74.61420 21432 ft 398 kts 339°
2026-04-23 00:54 40.98143 -74.62587 22337 ft 402 kts 339°
2026-04-23 00:54 41.00798 -74.63776 23149 ft 407 kts 339°
2026-04-23 00:55 41.03527 -74.64997 23916 ft 413 kts 339°
2026-04-23 00:55 41.06146 -74.66170 24784 ft 416 kts 339°
2026-04-23 00:55 41.08819 -74.67556 25701 ft 415 kts 333°
2026-04-23 00:55 41.11345 -74.69452 26495 ft 417 kts 325°
2026-04-23 00:56 41.13649 -74.71851 27305 ft 420 kts 317°
2026-04-23 00:56 41.15655 -74.74676 28110 ft 424 kts 310°
2026-04-23 00:56 41.17341 -74.77900 28869 ft 429 kts 303°
2026-04-23 00:56 41.18830 -74.81318 29630 ft 433 kts 302°
2026-04-23 00:57 41.20310 -74.84763 30613 ft 429 kts 302°
2026-04-23 00:57 41.21777 -74.88175 31573 ft 423 kts 303°
2026-04-23 00:57 41.23225 -74.91536 32432 ft 418 kts 303°
2026-04-23 00:57 41.24667 -74.94881 33197 ft 415 kts 304°
2026-04-23 00:58 41.26089 -74.98175 33803 ft 414 kts 304°
2026-04-23 00:58 41.27534 -75.01524 34358 ft 414 kts 304°
2026-04-23 00:58 41.28954 -75.04815 34901 ft 413 kts 304°
2026-04-23 00:58 41.30371 -75.08102 35461 ft 411 kts 304°
2026-04-23 00:59 41.31799 -75.11417 35886 ft 412 kts 303°
2026-04-23 00:59 41.33232 -75.14747 36320 ft 413 kts 303°
2026-04-23 00:59 41.34661 -75.18069 36909 ft 412 kts 303°
2026-04-23 00:59 41.36091 -75.21400 37414 ft 412 kts 303°
2026-04-23 01:00 41.37516 -75.24719 37853 ft 413 kts 303°
2026-04-23 01:00 41.38942 -75.28046 37997 ft 416 kts 303°
2026-04-23 01:00 41.40380 -75.31405 37986 ft 415 kts 303°
2026-04-23 01:01 41.43227 -75.38066 37985 ft 411 kts 303°
2026-04-23 01:01 41.46067 -75.44725 37978 ft 415 kts 303°
2026-04-23 01:02 41.48560 -75.51701 37978 ft 414 kts 296°
2026-04-23 01:02 41.50664 -75.58992 37981 ft 417 kts 295°
2026-04-23 01:03 41.52733 -75.66201 37975 ft 417 kts 295°
2026-04-23 01:03 41.54808 -75.73447 37983 ft 416 kts 295°
2026-04-23 01:04 41.56881 -75.80711 37989 ft 416 kts 295°
2026-04-23 01:04 41.59961 -75.91539 37982 ft 418 kts 295°
2026-04-23 01:05 41.62020 -75.98804 37987 ft 417 kts 295°
2026-04-23 01:05 41.64076 -76.06081 38036 ft 419 kts 295°
2026-04-23 01:06 41.66110 -76.13303 37989 ft 415 kts 295°
2026-04-23 01:06 41.68152 -76.20573 37972 ft 416 kts 295°
2026-04-23 01:07 41.70181 -76.27814 37970 ft 418 kts 295°
2026-04-23 01:07 41.72214 -76.35093 37972 ft 418 kts 295°
2026-04-23 01:08 41.74255 -76.42419 37967 ft 418 kts 295°
2026-04-23 01:08 41.76279 -76.49707 37959 ft 420 kts 295°
2026-04-23 01:09 41.78308 -76.57038 37964 ft 418 kts 295°
2026-04-23 01:09 41.80328 -76.64343 37969 ft 419 kts 295°
2026-04-23 01:10 41.82353 -76.71696 37961 ft 418 kts 295°
2026-04-23 01:10 41.84352 -76.78971 37963 ft 417 kts 295°
2026-04-23 01:11 41.86348 -76.86259 37956 ft 418 kts 295°
2026-04-23 01:11 41.88357 -76.93613 37942 ft 420 kts 295°
2026-04-23 01:12 41.90348 -77.00949 37950 ft 417 kts 295°
2026-04-23 01:12 41.92334 -77.08289 37941 ft 420 kts 295°
2026-04-23 01:13 41.94328 -77.15685 37944 ft 418 kts 295°
2026-04-23 01:13 41.96292 -77.22989 37955 ft 417 kts 295°
2026-04-23 01:14 41.98270 -77.30365 37954 ft 416 kts 295°
2026-04-23 01:14 42.00226 -77.37678 37954 ft 418 kts 295°
2026-04-23 01:15 42.02186 -77.44969 37956 ft 414 kts 296°
2026-04-23 01:15 42.04184 -77.52288 37955 ft 416 kts 296°
2026-04-23 01:16 42.06165 -77.59579 37951 ft 415 kts 296°
2026-04-23 01:16 42.08149 -77.66901 37960 ft 415 kts 296°
2026-04-23 01:17 42.10108 -77.74159 37982 ft 415 kts 295°
2026-04-23 01:17 42.12086 -77.81509 38024 ft 414 kts 295°
2026-04-23 01:18 42.14046 -77.88815 38027 ft 415 kts 296°
2026-04-23 01:18 42.16011 -77.96162 38015 ft 414 kts 295°
2026-04-23 01:19 42.17956 -78.03453 38025 ft 414 kts 296°
2026-04-23 01:19 42.19908 -78.10794 38028 ft 413 kts 296°
2026-04-23 01:20 42.21859 -78.18154 38024 ft 414 kts 296°
2026-04-23 01:20 42.23801 -78.25506 38036 ft 411 kts 296°
2026-04-23 01:21 42.25671 -78.32829 38015 ft 413 kts 295°
2026-04-23 01:21 42.27489 -78.40179 38038 ft 413 kts 295°
2026-04-23 01:22 42.29308 -78.47545 38007 ft 411 kts 295°
2026-04-23 01:22 42.31120 -78.54890 37983 ft 411 kts 295°
2026-04-23 01:23 42.32936 -78.62269 38004 ft 414 kts 295°
2026-04-23 01:23 42.34747 -78.69655 38003 ft 413 kts 294°
2026-04-23 01:24 42.36552 -78.77038 37982 ft 411 kts 294°
2026-04-23 01:24 42.38353 -78.84428 37981 ft 412 kts 294°
2026-04-23 01:25 42.39931 -78.91895 38005 ft 416 kts 287°
2026-04-23 01:25 42.40556 -78.99828 38000 ft 423 kts 282°
2026-04-23 01:26 42.41081 -79.07754 38020 ft 423 kts 283°
2026-04-23 01:26 42.41604 -79.15713 38014 ft 423 kts 282°
2026-04-23 01:27 42.42121 -79.23690 38025 ft 424 kts 282°
2026-04-23 01:27 42.42632 -79.31647 38016 ft 422 kts 282°
2026-04-23 01:28 42.43132 -79.39539 38018 ft 423 kts 283°
2026-04-23 01:28 42.43633 -79.47505 38012 ft 424 kts 283°
2026-04-23 01:29 42.44128 -79.55482 37995 ft 423 kts 282°
2026-04-23 01:29 42.44617 -79.63454 37988 ft 425 kts 283°
2026-04-23 01:30 42.45101 -79.71441 37990 ft 422 kts 282°
2026-04-23 01:30 42.45583 -79.79453 37992 ft 425 kts 282°
2026-04-23 01:31 42.46052 -79.87388 37986 ft 424 kts 282°
2026-04-23 01:31 42.46520 -79.95367 37971 ft 424 kts 282°
2026-04-23 01:32 42.46981 -80.03357 37987 ft 424 kts 281°
2026-04-23 01:32 42.47436 -80.11325 37975 ft 424 kts 282°
2026-04-23 01:33 42.47887 -80.19305 37967 ft 426 kts 282°
2026-04-23 01:33 42.48335 -80.27354 37976 ft 425 kts 281°
2026-04-23 01:34 42.48775 -80.35342 37978 ft 425 kts 282°
2026-04-23 01:34 42.49209 -80.43344 37983 ft 424 kts 281°
2026-04-23 01:35 42.49640 -80.51372 37983 ft 427 kts 281°
2026-04-23 01:35 42.50066 -80.59436 37977 ft 423 kts 281°
2026-04-23 01:36 42.50485 -80.67439 37986 ft 428 kts 281°
2026-04-23 01:36 42.50784 -80.75489 37986 ft 429 kts 279°
2026-04-23 01:37 42.51022 -80.83522 37981 ft 427 kts 279°
2026-04-23 01:37 42.51265 -80.91636 37981 ft 427 kts 279°
2026-04-23 01:38 42.51502 -80.99676 37986 ft 428 kts 279°
2026-04-23 01:38 42.51737 -81.07767 37980 ft 429 kts 279°
2026-04-23 01:39 42.51967 -81.15846 37984 ft 429 kts 279°
2026-04-23 01:39 42.52193 -81.23968 37991 ft 430 kts 278°
2026-04-23 01:40 42.52842 -81.31951 37993 ft 425 kts 285°
2026-04-23 01:40 42.53755 -81.39845 37994 ft 423 kts 285°
2026-04-23 01:41 42.54664 -81.47781 37994 ft 425 kts 285°
2026-04-23 01:41 42.55560 -81.55679 37996 ft 425 kts 285°
2026-04-23 01:42 42.56455 -81.63633 37995 ft 425 kts 284°
2026-04-23 01:42 42.57335 -81.71498 38003 ft 425 kts 284°
2026-04-23 01:43 42.58222 -81.79493 38004 ft 426 kts 284°
2026-04-23 01:43 42.59094 -81.87402 38012 ft 426 kts 284°
2026-04-23 01:44 42.59974 -81.95431 37986 ft 429 kts 284°
2026-04-23 01:44 42.60846 -82.03445 38000 ft 428 kts 284°
2026-04-23 01:45 42.61710 -82.11446 38007 ft 425 kts 284°
2026-04-23 01:45 42.62571 -82.19460 38003 ft 428 kts 284°
2026-04-23 01:46 42.63420 -82.27428 38005 ft 425 kts 284°
2026-04-23 01:46 42.64270 -82.35441 37997 ft 430 kts 283°
2026-04-23 01:47 42.65114 -82.43475 37995 ft 425 kts 284°
2026-04-23 01:47 42.65950 -82.51473 37973 ft 427 kts 284°
2026-04-23 01:48 42.66782 -82.59496 37968 ft 428 kts 284°
2026-04-23 01:48 42.67615 -82.67584 37980 ft 429 kts 283°
2026-04-23 01:49 42.68440 -82.75658 37973 ft 428 kts 283°
2026-04-23 01:49 42.69247 -82.83659 37973 ft 430 kts 283°
2026-04-23 01:50 42.70060 -82.91795 37972 ft 432 kts 283°
2026-04-23 01:50 42.70858 -82.99843 37975 ft 428 kts 283°
2026-04-23 01:51 42.71745 -83.07910 37973 ft 430 kts 284°
2026-04-23 01:51 42.72698 -83.15910 37975 ft 429 kts 284°
2026-04-23 01:52 42.73649 -83.23990 37984 ft 431 kts 284°
2026-04-23 01:52 42.74587 -83.32046 37988 ft 429 kts 284°
2026-04-23 01:53 42.75516 -83.40089 37983 ft 427 kts 284°
2026-04-23 01:53 42.76440 -83.48143 37984 ft 431 kts 284°
2026-04-23 01:54 42.77355 -83.56179 37984 ft 430 kts 284°
2026-04-23 01:54 42.78268 -83.64253 37983 ft 428 kts 284°
2026-04-23 01:55 42.79174 -83.72316 37998 ft 428 kts 283°
2026-04-23 01:55 42.80072 -83.80357 38000 ft 428 kts 284°
2026-04-23 01:56 42.80970 -83.88454 37994 ft 429 kts 284°
2026-04-23 01:56 42.81858 -83.96516 37997 ft 430 kts 283°
2026-04-23 01:57 42.82740 -84.04583 37992 ft 431 kts 284°
2026-04-23 01:57 42.83623 -84.12709 37996 ft 431 kts 283°
2026-04-23 01:58 42.84497 -84.20805 37989 ft 430 kts 283°
2026-04-23 01:58 42.85355 -84.28833 37261 ft 422 kts 283°
2026-04-23 01:59 42.85776 -84.32778 36520 ft 420 kts 284°
2026-04-23 01:59 42.86198 -84.36750 35801 ft 418 kts 283°
2026-04-23 01:59 42.86612 -84.40656 35098 ft 419 kts 283°
2026-04-23 01:59 42.87049 -84.44741 34355 ft 441 kts 283°
2026-04-23 02:00 42.87487 -84.48891 33630 ft 446 kts 283°
2026-04-23 02:00 42.87929 -84.53122 32859 ft 448 kts 283°
2026-04-23 02:00 42.88207 -84.57362 32046 ft 455 kts 276°
2026-04-23 02:00 42.88038 -84.61717 31372 ft 460 kts 269°
2026-04-23 02:01 42.87608 -84.66082 31266 ft 457 kts 267°
2026-04-23 02:01 42.87165 -84.70419 31265 ft 466 kts 267°
2026-04-23 02:01 42.86251 -84.79246 31075 ft 466 kts 267°
2026-04-23 02:02 42.85800 -84.83563 30898 ft 465 kts 267°
2026-04-23 02:02 42.85345 -84.87899 30881 ft 462 kts 267°
2026-04-23 02:02 42.84419 -84.96697 30897 ft 466 kts 266°
2026-04-23 02:03 42.83490 -85.05414 30886 ft 466 kts 266°
2026-04-23 02:03 42.82551 -85.14165 30890 ft 464 kts 266°
2026-04-23 02:04 42.81612 -85.22860 30889 ft 464 kts 266°
2026-04-23 02:04 42.80661 -85.31610 30880 ft 467 kts 266°
2026-04-23 02:05 42.79700 -85.40372 30895 ft 468 kts 266°
2026-04-23 02:05 42.78714 -85.49180 30883 ft 468 kts 264°
2026-04-23 02:06 42.77225 -85.57851 30885 ft 472 kts 261°
2026-04-23 02:06 42.76453 -85.62143 30768 ft 474 kts 261°
2026-04-23 02:06 42.75660 -85.66544 30287 ft 470 kts 261°
2026-04-23 02:07 42.74885 -85.70830 29894 ft 460 kts 261°
2026-04-23 02:07 42.74131 -85.74993 29509 ft 451 kts 261°
2026-04-23 02:07 42.73385 -85.79108 29116 ft 443 kts 261°
2026-04-23 02:07 42.72659 -85.83109 28736 ft 435 kts 261°
2026-04-23 02:08 42.71931 -85.87114 28342 ft 428 kts 261°
2026-04-23 02:08 42.71220 -85.91014 27951 ft 421 kts 261°
2026-04-23 02:08 42.70530 -85.94799 27563 ft 414 kts 261°
2026-04-23 02:08 42.69834 -85.98609 27168 ft 408 kts 261°
2026-04-23 02:09 42.69078 -86.02322 26780 ft 408 kts 258°
2026-04-23 02:09 42.68257 -86.06081 26740 ft 423 kts 258°
2026-04-23 02:09 42.67405 -86.09978 26828 ft 441 kts 258°
2026-04-23 02:09 42.66505 -86.14086 26745 ft 463 kts 257°
2026-04-23 02:10 42.65575 -86.18313 26470 ft 471 kts 257°
2026-04-23 02:10 42.64639 -86.22545 26188 ft 468 kts 257°
2026-04-23 02:10 42.63701 -86.26775 25898 ft 465 kts 257°
2026-04-23 02:10 42.62769 -86.30971 25563 ft 465 kts 257°
2026-04-23 02:11 42.61827 -86.35201 25196 ft 464 kts 257°
2026-04-23 02:11 42.60901 -86.39352 24827 ft 462 kts 257°
2026-04-23 02:11 42.59967 -86.43534 24441 ft 459 kts 257°
2026-04-23 02:11 42.59052 -86.47617 24078 ft 458 kts 257°
2026-04-23 02:12 42.58124 -86.51757 23695 ft 456 kts 257°
2026-04-23 02:12 42.57201 -86.55867 23324 ft 454 kts 257°
2026-04-23 02:12 42.56285 -86.59937 22971 ft 453 kts 257°
2026-04-23 02:12 42.55363 -86.64023 22618 ft 450 kts 257°
2026-04-23 02:13 42.54451 -86.68061 22257 ft 448 kts 257°
2026-04-23 02:13 42.53535 -86.72109 21849 ft 445 kts 256°
2026-04-23 02:13 42.52634 -86.76084 21439 ft 442 kts 256°
2026-04-23 02:13 42.51734 -86.80045 21009 ft 439 kts 256°
2026-04-23 02:14 42.50828 -86.84030 20587 ft 437 kts 256°
2026-04-23 02:14 42.49935 -86.87947 20148 ft 434 kts 256°
2026-04-23 02:14 42.49055 -86.91805 19756 ft 431 kts 256°
2026-04-23 02:14 42.48164 -86.95702 19332 ft 429 kts 256°
2026-04-23 02:15 42.46411 -87.03349 18450 ft 424 kts 256°
2026-04-23 02:15 42.45538 -87.07154 18017 ft 421 kts 256°
2026-04-23 02:15 42.44668 -87.10933 17597 ft 416 kts 256°
2026-04-23 02:16 42.43808 -87.14663 17170 ft 408 kts 256°
2026-04-23 02:16 42.42968 -87.18310 16782 ft 416 kts 256°
2026-04-23 02:16 42.42104 -87.22059 16336 ft 417 kts 256°
2026-04-23 02:16 42.41230 -87.25835 15919 ft 415 kts 256°
2026-04-23 02:17 42.40380 -87.29508 15449 ft 412 kts 256°
2026-04-23 02:17 42.39527 -87.33197 15038 ft 410 kts 255°
2026-04-23 02:17 42.38552 -87.36833 14597 ft 409 kts 252°
2026-04-23 02:17 42.37538 -87.40417 14218 ft 407 kts 252°
2026-04-23 02:18 42.36539 -87.43955 13795 ft 404 kts 252°
2026-04-23 02:18 42.35432 -87.47469 13273 ft 404 kts 246°
2026-04-23 02:18 42.34059 -87.50739 12857 ft 405 kts 240°
2026-04-23 02:18 42.32379 -87.53796 12689 ft 394 kts 231°
2026-04-23 02:19 42.30443 -87.56374 12849 ft 389 kts 224°
2026-04-23 02:19 42.28405 -87.58727 12755 ft 379 kts 223°
2026-04-23 02:19 42.26382 -87.61030 12194 ft 378 kts 222°
2026-04-23 02:19 42.24347 -87.63282 11542 ft 380 kts 221°
2026-04-23 02:20 42.22322 -87.65482 11225 ft 370 kts 220°
2026-04-23 02:20 42.20314 -87.67645 10788 ft 366 kts 220°
2026-04-23 02:20 42.18298 -87.69799 10061 ft 370 kts 219°
2026-04-23 02:20 42.16333 -87.71988 9602 ft 364 kts 224°
2026-04-23 02:21 42.14601 -87.74388 9456 ft 349 kts 231°
2026-04-23 02:21 42.13136 -87.76934 9355 ft 334 kts 237°
2026-04-23 02:21 42.11938 -87.79547 9301 ft 318 kts 243°
2026-04-23 02:21 42.10996 -87.82155 9286 ft 301 kts 249°
2026-04-23 02:22 42.10282 -87.84720 9272 ft 285 kts 255°
2026-04-23 02:22 42.09762 -87.87235 9103 ft 277 kts 259°
2026-04-23 02:22 42.09414 -87.89743 9013 ft 275 kts 265°
2026-04-23 02:22 42.09227 -87.92310 9005 ft 275 kts 269°
2026-04-23 02:23 42.09193 -87.94868 9006 ft 274 kts 272°
2026-04-23 02:23 42.09188 -87.97450 9002 ft 274 kts 272°
2026-04-23 02:23 42.09185 -88.00040 8999 ft 274 kts 272°
2026-04-23 02:23 42.09183 -88.02586 8995 ft 275 kts 272°
2026-04-23 02:24 42.09178 -88.05164 8995 ft 274 kts 272°
2026-04-23 02:24 42.09170 -88.07731 9016 ft 276 kts 272°
2026-04-23 02:24 42.09162 -88.10301 8988 ft 275 kts 272°
2026-04-23 02:24 42.09154 -88.12902 8995 ft 275 kts 272°
2026-04-23 02:25 42.09145 -88.15472 8988 ft 276 kts 272°
2026-04-23 02:25 42.09136 -88.18042 8998 ft 275 kts 272°
2026-04-23 02:25 42.09125 -88.20640 8994 ft 274 kts 272°
2026-04-23 02:25 42.09115 -88.23188 9003 ft 274 kts 272°
2026-04-23 02:26 42.09104 -88.25739 8971 ft 273 kts 272°
2026-04-23 02:26 42.09092 -88.28318 8926 ft 272 kts 271°
2026-04-23 02:26 42.09069 -88.30896 9002 ft 275 kts 271°
2026-04-23 02:26 42.09042 -88.33424 8997 ft 273 kts 271°
2026-04-23 02:27 42.09017 -88.35992 9012 ft 273 kts 271°
2026-04-23 02:27 42.08992 -88.38546 8848 ft 274 kts 271°
2026-04-23 02:27 42.08966 -88.41141 8676 ft 274 kts 271°
2026-04-23 02:27 42.08940 -88.43692 8623 ft 273 kts 271°
2026-04-23 02:28 42.08913 -88.46236 8493 ft 273 kts 271°
2026-04-23 02:28 42.08586 -88.48740 8374 ft 273 kts 249°
2026-04-23 02:28 42.07508 -88.50821 8037 ft 274 kts 222°
2026-04-23 02:28 42.05829 -88.52013 7963 ft 277 kts 194°
2026-04-23 02:29 42.03901 -88.52078 7840 ft 283 kts 169°
2026-04-23 02:29 42.02118 -88.50992 7479 ft 282 kts 140°
2026-04-23 02:29 42.00852 -88.49040 7201 ft 277 kts 117°
2026-04-23 02:29 42.00354 -88.46591 6909 ft 272 kts 92°
2026-04-23 02:30 42.00303 -88.44029 6639 ft 273 kts 90°
2026-04-23 02:30 42.00283 -88.41459 6385 ft 274 kts 90°
2026-04-23 02:30 42.00270 -88.38912 6129 ft 273 kts 89°
2026-04-23 02:30 42.00258 -88.36381 5856 ft 270 kts 90°
2026-04-23 02:31 42.00245 -88.33878 5590 ft 268 kts 90°
2026-04-23 02:31 42.00234 -88.31338 5348 ft 266 kts 90°
2026-04-23 02:31 42.00223 -88.28875 5095 ft 264 kts 89°
2026-04-23 02:31 42.00217 -88.26432 4841 ft 262 kts 90°
2026-04-23 02:32 42.00214 -88.23964 4560 ft 260 kts 90°
2026-04-23 02:32 42.00214 -88.21564 4257 ft 259 kts 90°
2026-04-23 02:32 42.00216 -88.19137 3994 ft 258 kts 90°
2026-04-23 02:32 42.00221 -88.16747 3733 ft 257 kts 90°
2026-04-23 02:33 42.00228 -88.14357 3461 ft 255 kts 90°
2026-04-23 02:33 42.00234 -88.12002 3171 ft 252 kts 90°
2026-04-23 02:33 42.00241 -88.09657 2866 ft 245 kts 90°
2026-04-23 02:33 42.00245 -88.07420 2605 ft 233 kts 90°
2026-04-23 02:34 42.00247 -88.05321 2352 ft 215 kts 90°
2026-04-23 02:34 42.00249 -88.03404 2123 ft 194 kts 89°
2026-04-23 02:34 42.00253 -88.01724 1956 ft 167 kts 89°
2026-04-23 02:34 42.00258 -88.00254 1764 ft 150 kts 89°
2026-04-23 02:35 42.00262 -87.98883 1584 ft 143 kts 88°
2026-04-23 02:35 42.00265 -87.97566 1403 ft 140 kts 88°
2026-04-23 02:35 42.00272 -87.96252 1200 ft 140 kts 88°
2026-04-23 02:35 42.00275 -87.94939 1006 ft 140 kts 88°
2026-04-23 02:36 42.00280 -87.93649 829 ft 137 kts 88°
2026-04-23 02:36 42.00281 -87.92376 671 ft 133 kts 88°
2026-04-23 02:36 42.00284 -87.91290 658 ft 97 kts 90°
2026-04-23 02:36 42.00284 -87.90769 656 ft 30 kts 90°
2026-04-23 02:37 42.00284 -87.90520 655 ft 24 kts 94°
2026-04-23 02:37 42.00267 -87.90299 654 ft 22 kts 103°
2026-04-23 02:37 42.00209 -87.90102 652 ft 22 kts 127°
2026-04-23 02:37 42.00113 -87.89970 654 ft 16 kts 151°
2026-04-23 02:38 42.00016 -87.89936 657 ft 12 kts 174°
2026-04-23 02:38 41.99932 -87.89928 658 ft 11 kts 176°
2026-04-23 02:38 41.99851 -87.89929 658 ft 11 kts 192°
2026-04-23 02:38 41.99776 -87.89967 658 ft 11 kts 211°
2026-04-23 02:39 41.99706 -87.90021 658 ft 11 kts 202°
2026-04-23 02:39 41.99624 -87.90045 659 ft 13 kts 182°
2026-04-23 02:39 41.99535 -87.90044 661 ft 12 kts 180°
2026-04-23 02:39 41.99454 -87.90044 661 ft 11 kts 180°
2026-04-23 02:40 41.99365 -87.90044 661 ft 17 kts 180°
2026-04-23 02:40 41.99243 -87.90048 661 ft 17 kts 181°
2026-04-23 02:40 41.99125 -87.90044 661 ft 16 kts 180°
2026-04-23 02:40 41.99013 -87.90044 661 ft 15 kts 179°
2026-04-23 02:41 41.98905 -87.90043 661 ft 15 kts 180°
2026-04-23 02:41 41.98800 -87.90042 661 ft 14 kts 179°
2026-04-23 02:41 41.98700 -87.90041 661 ft 14 kts 179°
2026-04-23 02:41 41.98604 -87.90044 663 ft 12 kts 180°
2026-04-23 02:42 41.98521 -87.90044 664 ft 10 kts 180°
2026-04-23 02:42 41.98447 -87.90043 665 ft 10 kts 179°
2026-04-23 02:42 41.98375 -87.90042 665 ft 10 kts 180°
2026-04-23 02:42 41.98315 -87.90045 665 ft 6 kts 201°
2026-04-23 02:43 41.98293 -87.90099 665 ft 7 kts 260°
2026-04-23 02:43 41.98290 -87.90166 665 ft 7 kts 269°
2026-04-23 02:43 41.98289 -87.90266 666 ft 11 kts 269°
2026-04-23 02:43 41.98289 -87.90415 667 ft 20 kts 270°
2026-04-23 02:44 41.98288 -87.90602 668 ft 19 kts 269°
2026-04-23 02:44 41.98270 -87.90767 668 ft 14 kts 255°
2026-04-23 02:44 41.98207 -87.90826 670 ft 11 kts 181°
2026-04-23 02:44 41.98132 -87.90819 671 ft 10 kts 174°
2026-04-23 02:45 41.98062 -87.90818 671 ft 10 kts 183°
2026-04-23 02:45 41.97994 -87.90831 671 ft 9 kts 193°
2026-04-23 02:45 41.97980 -87.90835 671 ft 0 kts 191°
2026-04-23 02:45 41.97966 -87.90839 671 ft 6 kts 191°
2026-04-23 02:46 41.97932 -87.90848 671 ft 1 kts 205°
2026-04-23 02:46 41.97920 -87.90867 671 ft 2 kts 233°
2026-04-23 02:46 41.97915 -87.90890 671 ft 2 kts 273°
2026-04-23 02:46 41.97918 -87.90913 671 ft 1 kts 280°
2026-04-23 02:47 41.97920 -87.90929 671 ft 2 kts 280°
2026-04-23 02:47 41.97922 -87.90942 671 ft 0 kts 280°